Location: Ferchesar
(52.6477°N, 12.4298°E)
Time: 14:51:10
(UTC+01:00)

deb Explorer IX - Pass Details

Date: 14 December 2021
Orbit: 544 x 1082 km, 38.8° (Epoch: 18 January)

Event Time Altitude Azimuth Distance (km) Brightness Sun altitude
Rises 10:29:51 0° 254° (WSW) 3,305 ? 11.3°
Reaches altitude 10° 10:34:58 10° 214° (SW) 2,193 ? 11.6°
Maximum altitude 10:35:42 10° 206° (SSW) 2,149 ? 11.7°
Drops below altitude 10° 10:36:24 10° 198° (SSW) 2,144 ? 11.7°
Sets 10:40:59 0° 156° (SSE) 2,904 ? 11.9°
